Regional Weather Roundup
Issued by NWS Green Bay, WI

Home | Current Version | Previous Version | Text Only | Print | Product List | Glossary On
Versions: 1 2 3 4 5 6 7 8 9 10 11 12 13 14 15 16 17 18 19 20 21 22 23 24 25 26 27 28 29 30 31 32 33 34 35 36 37 38 39 40 41 42 43 44 45 46 47 48 49 50
000
ASUS43 KGRB 172110
RWRGRB

NORTH-CENTRAL AND NORTHEAST WISCONSIN REGIONAL WEATHER ROUNDUP
NATIONAL WEATHER SERVICE GREEN BAY WI
400 PM CDT THU APR 17 2014

WIZ005-009-010>012-018-019-172200-
NORTH CENTRAL WISCONSIN

CITY           SKY/WX    TMP DP  RH WIND       PRES   REMARKS
IRONWOOD       CLOUDY    34  27  75 W12       30.17R
MANITOWISH WTR CLOUDY    32  30  92 NW7       30.18R
ARBOR VITAE    CLOUDY    37  32  84 NW8       30.17R
EAGLE RIVER    CLOUDY    35  32  90 W6        30.15S
LAND O LAKES   CLOUDY    35  33  90 W6        30.16R
RHINELANDER    CLOUDY    35  31  85 W8        30.17R
PHILLIPS       CLOUDY    34  30  85 NW6       30.19R
ANTIGO         CLOUDY    37  33  84 W9        30.17S
TOMAHAWK       CLOUDY    35  31  86 W7        30.19R
MERRILL        CLOUDY    37  33  84 CALM      30.19R
$$

WIZ013-073-172200-
NORTHEAST WISCONSIN

CITY           SKY/WX    TMP DP  RH WIND       PRES   REMARKS
IRON MOUNTAIN  CLOUDY    39  33  79 CALM      30.15S
MARINETTE      CLOUDY    45  34  65 NW5       30.18R
OCONTO         CLOUDY    46  35  65 NW5       30.18R
$$

WIZ017-030-035>037-045-172200-
CENTRAL WISCONSIN

CITY           SKY/WX    TMP DP  RH WIND       PRES   REMARKS
MEDFORD        CLOUDY    34  31  88 W7        30.20R
WAUSAU         CLOUDY    40  33  76 NW13      30.18R
MOSINEE        CLOUDY    39  36  87 W12       30.20R
MARSHFIELD     CLOUDY    39  33  79 NW13      30.21R
WISC RAPIDS    CLOUDY    42  34  73 W13       30.22R
STEVENS POINT  CLOUDY    41  33  73 W10G16    30.20R
WAUPACA        PTSUNNY   52  36  54 NW3G9     30.18S
SHAWANO        CLOUDY    49  36  61 W10       30.18R
CLINTONVILLE   CLOUDY    46  34  61 NW8       30.18R
$$

WIZ038-039-048-051-172200-
FOX VALLEY

CITY           SKY/WX    TMP DP  RH WIND       PRES   REMARKS
NWS GREEN BAY  CLOUDY    50  39  66 NW12      30.17R
APPLETON       PTSUNNY   52  36  54 NW7       30.16R
OSHKOSH        CLOUDY    54  37  52 NW14      30.16R
FOND DU LAC    CLOUDY    53  39  59 S10       30.16S
$$

WIZ022-050-052-172200-
EAST CENTRAL WISCONSIN

CITY           SKY/WX    TMP DP  RH WIND       PRES   REMARKS
STURGEON BAY   CLOUDY    45  34  65 NW5       30.19R
MANITOWOC      CLOUDY    51  39  63 SW9       30.17S
SHEBOYGAN      CLOUDY    51  39  63 S8        30.18S
$$

LMZ563-521-522-541>543-172200-
LAKESHORE

STATION/POSITION TIME  TEMP    WIND        PRES    VSBY  WAVE
                       AIR SEA DIR/SP/G                  HT/PER
                 (UTC) (F)     (DEG/KT/KT) (MB)    (MI)  (FT/S)
SHEBOYGAN LKSHOR 2100   52     240/  8/ 10 1022.6R
KEWAUNEE LKSHORE 2100   38     170/  9/ 11 1022.1S
NORTHPORT PIER   2100   40     310/  5/  9 1022.0R
SISTER BAY LKSHO 2100   42      10/ 11/ 12   N/A
MENOMINEE LKSHOR 2100   45     270/  5/ 13 1022.3R
$$



USA.gov is the U.S. government's official web portal to all federal, state and local government web resources and services.